This is the latest recevied weather packets stored in our database for station/object N3SBK. If no packets are shown the sender has not sent any weather packets the latest 10 day(s).
| Time | Temp. | Humidity | Pressure | Rain* | Wind** | Luminosity | Snow |
|---|---|---|---|---|---|---|---|
| 1777934107 | 20.56° C | 47% | 999.4 hPa | 0 mm | - | 47 W/m² | - |
| 1777933803 | 20.56° C | 46% | 999.4 hPa | 0 mm | - | 49 W/m² | - |
| 1777933500 | 20.56° C | 46% | 999.4 hPa | 0 mm | - | 74 W/m² | - |
| 1777933198 | 20.56° C | 47% | 999.3 hPa | 0 mm | - | 70 W/m² | - |
| 1777932895 | 20.56° C | 46% | 999.8 hPa | 0 mm | - | 72 W/m² | - |
| 1777932592 | 21.11° C | 45% | 999.5 hPa | 0 mm | - | 48 W/m² | - |
| 1777932288 | 21.67° C | 44% | 999.5 hPa | 0 mm | - | 49 W/m² | - |
| 1777931985 | 21.67° C | 43% | 999.4 hPa | 0 mm | - | 51 W/m² | - |
| 1777931682 | 22.22° C | 42% | 999.2 hPa | 0 mm | - | 152 W/m² | - |
| 1777931379 | 22.22° C | 41% | 999.4 hPa | 0 mm | - | 209 W/m² | - |
| 1777931075 | 22.22° C | 41% | 999.4 hPa | 0 mm | - | 231 W/m² | - |
| 1777930772 | 22.22° C | 42% | 999.4 hPa | 0 mm | - | 235 W/m² | - |
| 1777930468 | 22.22° C | 42% | 999.3 hPa | 0 mm | - | 248 W/m² | - |
| 1777930165 | 22.78° C | 41% | 999.2 hPa | 0 mm | - | 263 W/m² | - |
| 1777929861 | 22.22° C | 42% | 999.4 hPa | 0 mm | - | 280 W/m² | - |
| 1777929559 | 22.22° C | 42% | 999.6 hPa | 0 mm | - | 80 W/m² | - |
| 1777929255 | 21.67° C | 44% | 999.6 hPa | 0 mm | - | 345 W/m² | - |
| 1777928952 | 22.22° C | 43% | 999.3 hPa | 0 mm | - | 344 W/m² | - |
| 1777928649 | 22.78° C | 42% | 999.3 hPa | 0 mm | - | 293 W/m² | - |
| 1777928346 | 22.78° C | 41% | 999.4 hPa | 0 mm | - | 348 W/m² | - |
| 1777928044 | 22.78° C | 43% | 999.3 hPa | 0 mm | - | 359 W/m² | - |
| 1777927742 | 23.33° C | 42% | 999.3 hPa | 0 mm | - | 374 W/m² | - |
| 1777927440 | 22.78° C | 43% | 999.4 hPa | 0 mm | - | 389 W/m² | - |
| 1777927139 | 22.78° C | 42% | 999.2 hPa | 0 mm | - | 408 W/m² | - |
| 1777926836 | 22.78° C | 42% | 999.3 hPa | 0 mm | - | 420 W/m² | - |
* Rain latest hour (hover to see other rain measurements)
** Current wind speed in m/s (hover to see current wind gust speed)